Time,TemperatureF,DewpointF,PressureIn,WindDirection,WindDirectionDegrees,WindSpeedMPH,WindSpeedGustMPH,Humidity,HourlyPrecipIn,Conditions,Clouds,dailyrainin,SoftwareType,DateUTC
2013-01-11 00:03:00,33.8,31.5,29.47,South,177,0.0,0.0,91,0.00,,---,0.00,VWS V13.00,2013-01-11 09:03:00,
2013-01-11 00:08:00,33.8,31.5,29.47,South,177,0.0,0.0,91,0.00,,---,0.00,VWS V13.00,2013-01-11 09:08:00,
2013-01-11 00:13:00,33.8,31.7,29.47,SSE,163,0.0,0.0,92,0.00,,---,0.00,VWS V13.00,2013-01-11 09:13:00,
2013-01-11 00:18:00,33.8,31.7,29.47,SSE,163,0.0,0.0,92,0.00,,---,0.00,VWS V13.00,2013-01-11 09:18:00,
2013-01-11 00:23:00,34.2,32.3,29.47,SSE,154,0.0,0.0,93,0.00,,---,0.00,VWS V13.00,2013-01-11 09:23:00,
2013-01-11 00:28:00,34.3,32.8,29.47,SE,137,0.0,0.0,94,0.00,,---,0.00,VWS V13.00,2013-01-11 09:28:00,
2013-01-11 00:33:00,34.7,33.4,29.47,SE,137,0.0,0.0,95,0.00,,---,0.00,VWS V13.00,2013-01-11 09:33:00,
2013-01-11 00:38:00,34.7,33.4,29.47,SW,215,0.0,0.0,95,0.00,,---,0.00,VWS V13.00,2013-01-11 09:38:00,
2013-01-11 00:43:00,34.7,33.4,29.47,SW,215,0.0,0.0,95,0.00,,---,0.00,VWS V13.00,2013-01-11 09:43:00,
2013-01-11 00:48:00,34.7,33.4,29.47,SE,144,0.0,0.0,95,0.00,,---,0.00,VWS V13.00,2013-01-11 09:48:00,
2013-01-11 00:53:00,35.4,34.4,29.47,South,176,0.0,0.0,96,0.00,,---,0.00,VWS V13.00,2013-01-11 09:53:00,
2013-01-11 00:58:00,35.8,34.8,29.47,South,176,0.0,0.0,96,0.00,,---,0.00,VWS V13.00,2013-01-11 09:58:00,
2013-01-11 01:03:00,35.8,35.0,29.47,SSE,166,6.3,6.3,97,0.00,,---,0.00,VWS V13.00,2013-01-11 10:03:00,
2013-01-11 01:08:00,35.8,35.0,29.47,ESE,122,0.0,6.3,97,0.00,,---,0.00,VWS V13.00,2013-01-11 10:08:00,
2013-01-11 01:13:00,36.5,36.0,29.47,SSW,201,0.0,6.3,98,0.00,,---,0.00,VWS V13.00,2013-01-11 10:13:00,
2013-01-11 01:18:00,36.5,36.0,29.47,South,180,0.0,6.3,98,0.00,,---,0.00,VWS V13.00,2013-01-11 10:18:00,
2013-01-11 01:23:00,36.5,36.0,29.47,South,180,0.0,0.0,98,0.00,,---,0.00,VWS V13.00,2013-01-11 10:23:00,
2013-01-11 01:28:00,36.9,36.3,29.47,SSW,193,7.6,7.6,98,0.00,,---,0.00,VWS V13.00,2013-01-11 10:28:00,
2013-01-11 01:33:00,36.9,36.3,29.47,SW,215,0.0,7.6,98,0.00,,---,0.00,VWS V13.00,2013-01-11 10:33:00,
2013-01-11 01:38:00,36.9,36.3,29.44,SSW,195,0.0,7.6,98,0.00,,---,0.00,VWS V13.00,2013-01-11 10:38:00,
2013-01-11 01:43:00,36.9,36.3,29.44,SSW,193,0.0,0.0,98,0.00,,---,0.00,VWS V13.00,2013-01-11 10:43:00,
2013-01-11 01:48:00,36.9,36.3,29.44,SSW,196,0.0,0.0,98,0.00,,---,0.00,VWS V13.00,2013-01-11 10:48:00,
2013-01-11 01:53:00,37.0,36.5,29.44,SSE,164,0.0,0.0,98,0.00,,---,0.00,VWS V13.00,2013-01-11 10:53:00,
2013-01-11 01:58:00,37.0,36.5,29.47,SE,131,0.0,0.0,98,0.00,,---,0.00,VWS V13.00,2013-01-11 10:58:00,
2013-01-11 02:03:00,37.2,36.7,29.47,East,99,0.0,0.0,98,0.00,,---,0.00,VWS V13.00,2013-01-11 11:03:00,
2013-01-11 02:08:00,37.2,36.7,29.47,SSW,205,0.0,0.0,98,0.00,,---,0.00,VWS V13.00,2013-01-11 11:08:00,
2013-01-11 02:13:00,37.2,36.7,29.44,SSW,192,0.0,0.0,98,0.00,,---,0.00,VWS V13.00,2013-01-11 11:13:00,
2013-01-11 02:18:00,37.6,37.1,29.44,SSE,153,0.0,0.0,98,0.00,,---,0.00,VWS V13.00,2013-01-11 11:18:00,
2013-01-11 02:23:00,37.6,37.1,29.44,SE,141,0.0,0.0,98,0.00,,---,0.00,VWS V13.00,2013-01-11 11:23:00,
2013-01-11 02:28:00,37.6,37.1,29.44,SE,130,0.0,0.0,98,0.00,,---,0.00,VWS V13.00,2013-01-11 11:28:00,
2013-01-11 02:33:00,37.8,37.2,29.44,SE,138,0.0,0.0,98,0.00,,---,0.00,VWS V13.00,2013-01-11 11:33:00,
2013-01-11 02:38:00,37.8,37.2,29.44,ESE,109,0.0,0.0,98,0.00,,---,0.00,VWS V13.00,2013-01-11 11:38:00,
2013-01-11 02:43:00,37.8,37.2,29.44,SE,126,0.0,0.0,98,0.00,,---,0.00,VWS V13.00,2013-01-11 11:43:00,
2013-01-11 02:48:00,37.6,37.1,29.44,ENE,63,0.0,0.0,98,0.00,,---,0.00,VWS V13.00,2013-01-11 11:48:00,
2013-01-11 02:53:00,37.6,37.1,29.44,ENE,76,0.0,0.0,98,0.00,,---,0.00,VWS V13.00,2013-01-11 11:53:00,
2013-01-11 02:58:00,37.6,37.1,29.44,NNW,327,0.0,0.0,98,0.00,,---,0.00,VWS V13.00,2013-01-11 11:58:00,
2013-01-11 03:03:00,37.4,36.9,29.44,NNE,25,0.0,0.0,98,0.00,,---,0.00,VWS V13.00,2013-01-11 12:03:00,
2013-01-11 03:08:00,37.4,36.9,29.44,NE,36,0.0,0.0,98,0.00,,---,0.00,VWS V13.00,2013-01-11 12:08:00,
2013-01-11 03:13:00,37.4,36.9,29.44,NNE,22,0.0,0.0,98,0.00,,---,0.00,VWS V13.00,2013-01-11 12:13:00,
2013-01-11 03:18:00,37.4,36.9,29.44,NNE,21,0.0,0.0,98,0.00,,---,0.00,VWS V13.00,2013-01-11 12:18:00,
2013-01-11 03:23:00,37.0,36.5,29.44,ESE,106,0.0,0.0,98,0.00,,---,0.00,VWS V13.00,2013-01-11 12:23:00,
2013-01-11 03:28:00,37.0,36.5,29.44,North,5,0.0,0.0,98,0.00,,---,0.00,VWS V13.00,2013-01-11 12:28:00,
2013-01-11 03:33:00,37.0,36.5,29.44,ESE,123,0.0,0.0,98,0.00,,---,0.00,VWS V13.00,2013-01-11 12:33:00,
2013-01-11 03:38:00,37.2,36.7,29.44,ESE,123,0.0,0.0,98,0.00,,---,0.00,VWS V13.00,2013-01-11 12:38:00,
2013-01-11 03:43:00,37.2,36.7,29.47,ENE,74,0.0,0.0,98,0.00,,---,0.00,VWS V13.00,2013-01-11 12:43:00,
2013-01-11 03:48:00,37.4,36.9,29.47,North,0,0.0,0.0,98,0.00,,---,0.00,VWS V13.00,2013-01-11 12:48:00,
2013-01-11 03:53:00,37.4,36.9,29.47,ENE,72,0.0,0.0,98,0.00,,---,0.00,VWS V13.00,2013-01-11 12:53:00,
2013-01-11 03:58:00,37.8,37.2,29.47,North,11,0.0,0.0,98,0.00,,---,0.00,VWS V13.00,2013-01-11 12:58:00,
2013-01-11 04:03:00,37.8,37.2,29.47,North,11,0.0,0.0,98,0.00,,---,0.00,VWS V13.00,2013-01-11 13:03:00,
2013-01-11 04:08:00,37.8,37.2,29.47,NNE,14,0.0,0.0,98,0.00,,---,0.00,VWS V13.00,2013-01-11 13:08:00,
2013-01-11 04:13:00,37.6,37.1,29.47,North,8,0.0,0.0,98,0.00,,---,0.00,VWS V13.00,2013-01-11 13:13:00,
2013-01-11 04:18:00,37.6,37.1,29.47,North,1,0.0,0.0,98,0.00,,---,0.00,VWS V13.00,2013-01-11 13:18:00,
2013-01-11 04:23:00,37.6,37.1,29.47,North,3,0.0,0.0,98,0.00,,---,0.00,VWS V13.00,2013-01-11 13:23:00,
2013-01-11 04:28:00,37.6,37.1,29.47,North,10,0.0,0.0,98,0.00,,---,0.00,VWS V13.00,2013-01-11 13:28:00,
2013-01-11 04:33:00,37.6,37.1,29.47,NNW,343,0.0,0.0,98,0.00,,---,0.00,VWS V13.00,2013-01-11 13:33:00,
2013-01-11 04:38:00,37.6,37.1,29.47,NNE,17,0.0,0.0,98,0.00,,---,0.00,VWS V13.00,2013-01-11 13:38:00,
2013-01-11 04:43:00,37.6,37.1,29.47,North,349,0.0,0.0,98,0.00,,---,0.00,VWS V13.00,2013-01-11 13:43:00,
2013-01-11 04:48:00,37.4,36.9,29.47,North,0,0.0,0.0,98,0.00,,---,0.00,VWS V13.00,2013-01-11 13:48:00,
2013-01-11 04:53:00,37.4,36.9,29.47,North,5,0.0,0.0,98,0.00,,---,0.00,VWS V13.00,2013-01-11 13:53:00,
2013-01-11 04:58:00,37.4,36.9,29.47,North,5,0.0,0.0,98,0.00,,---,0.00,VWS V13.00,2013-01-11 13:58:00,
2013-01-11 05:03:00,37.2,36.7,29.47,North,6,0.0,0.0,98,0.00,,---,0.00,VWS V13.00,2013-01-11 14:03:00,
2013-01-11 05:08:00,37.2,36.7,29.50,NW,320,0.0,0.0,98,0.00,,---,0.00,VWS V13.00,2013-01-11 14:08:00,
2013-01-11 05:13:00,37.0,36.5,29.50,North,353,0.0,0.0,98,0.00,,---,0.00,VWS V13.00,2013-01-11 14:13:00,
2013-01-11 05:18:00,37.0,36.5,29.50,NNE,18,0.0,0.0,98,0.00,,---,0.00,VWS V13.00,2013-01-11 14:18:00,
2013-01-11 05:23:00,37.0,36.5,29.50,NNE,18,0.0,0.0,98,0.00,,---,0.00,VWS V13.00,2013-01-11 14:23:00,
2013-01-11 05:28:00,37.0,36.5,29.50,North,0,0.0,0.0,98,0.00,,---,0.00,VWS V13.00,2013-01-11 14:28:00,
2013-01-11 05:33:00,36.9,36.3,29.50,North,357,0.0,0.0,98,0.00,,---,0.00,VWS V13.00,2013-01-11 14:33:00,
2013-01-11 05:38:00,36.9,36.3,29.50,NW,305,0.0,0.0,98,0.00,,---,0.00,VWS V13.00,2013-01-11 14:38:00,
2013-01-11 05:43:00,36.9,36.3,29.50,WNW,297,0.0,0.0,98,0.00,,---,0.00,VWS V13.00,2013-01-11 14:43:00,
2013-01-11 05:48:00,36.7,36.2,29.50,WNW,300,0.0,0.0,98,0.00,,---,0.00,VWS V13.00,2013-01-11 14:48:00,
2013-01-11 05:53:00,36.7,36.2,29.50,East,91,0.0,0.0,98,0.00,,---,0.00,VWS V13.00,2013-01-11 14:53:00,
2013-01-11 05:58:00,36.3,35.8,29.53,SE,130,0.0,0.0,98,0.00,,---,0.00,VWS V13.00,2013-01-11 14:58:00,
2013-01-11 06:03:00,36.3,35.8,29.53,North,357,0.0,0.0,98,0.00,,---,0.00,VWS V13.00,2013-01-11 15:03:00,
2013-01-11 06:08:00,36.3,35.8,29.53,SSE,165,0.0,0.0,98,0.00,,---,0.00,VWS V13.00,2013-01-11 15:08:00,
2013-01-11 06:13:00,36.1,35.6,29.53,South,183,0.0,0.0,98,0.00,,---,0.00,VWS V13.00,2013-01-11 15:13:00,
2013-01-11 06:18:00,36.1,35.6,29.53,NNE,19,0.0,0.0,98,0.00,,---,0.00,VWS V13.00,2013-01-11 15:18:00,
2013-01-11 06:23:00,36.3,35.8,29.53,NNW,332,0.0,0.0,98,0.00,,---,0.00,VWS V13.00,2013-01-11 15:23:00,
2013-01-11 06:28:00,36.3,35.8,29.53,NE,38,0.0,0.0,98,0.00,,---,0.00,VWS V13.00,2013-01-11 15:28:00,
2013-01-11 06:33:00,35.6,35.1,29.53,NE,54,0.0,0.0,98,0.00,,---,0.00,VWS V13.00,2013-01-11 15:33:00,
2013-01-11 06:38:00,35.6,35.1,29.53,NE,35,0.0,0.0,98,0.00,,---,0.00,VWS V13.00,2013-01-11 15:38:00,
2013-01-11 06:43:00,34.9,34.4,29.53,NE,35,0.0,0.0,98,0.00,,---,0.00,VWS V13.00,2013-01-11 15:43:00,
2013-01-11 06:48:00,34.9,34.4,29.53,North,10,0.0,0.0,98,0.00,,---,0.00,VWS V13.00,2013-01-11 15:48:00,
2013-01-11 06:53:00,34.9,34.4,29.56,North,10,0.0,0.0,98,0.00,,---,0.00,VWS V13.00,2013-01-11 15:53:00,
2013-01-11 06:58:00,34.3,33.8,29.56,North,10,0.0,0.0,98,0.00,,---,0.00,VWS V13.00,2013-01-11 15:58:00,
2013-01-11 07:03:00,34.3,33.8,29.56,North,353,0.0,0.0,98,0.00,,---,0.00,VWS V13.00,2013-01-11 16:03:00,
2013-01-11 07:08:00,34.2,33.7,29.56,North,353,0.0,0.0,98,0.00,,---,0.00,VWS V13.00,2013-01-11 16:08:00,
2013-01-11 07:13:00,34.7,34.2,29.56,NW,307,0.0,0.0,98,0.00,,---,0.00,VWS V13.00,2013-01-11 16:13:00,
2013-01-11 07:18:00,34.7,34.2,29.56,NW,306,0.0,0.0,98,0.00,,---,0.00,VWS V13.00,2013-01-11 16:18:00,
2013-01-11 07:23:00,35.4,34.9,29.56,NW,306,0.0,0.0,98,0.00,,---,0.00,VWS V13.00,2013-01-11 16:23:00,
2013-01-11 07:28:00,35.2,34.7,29.56,SW,231,0.0,0.0,98,0.00,,---,0.00,VWS V13.00,2013-01-11 16:28:00,
2013-01-11 07:33:00,35.4,34.9,29.56,NE,46,0.0,0.0,98,0.00,,---,0.00,VWS V13.00,2013-01-11 16:33:00,
2013-01-11 07:38:00,35.4,34.9,29.56,North,353,0.0,0.0,98,0.00,,---,0.00,VWS V13.00,2013-01-11 16:38:00,
2013-01-11 07:43:00,35.6,35.1,29.59,SSW,195,0.0,0.0,98,0.00,,---,0.00,VWS V13.00,2013-01-11 16:43:00,
2013-01-11 07:48:00,35.8,35.3,29.59,SE,131,0.0,0.0,98,0.00,,---,0.00,VWS V13.00,2013-01-11 16:48:00,
2013-01-11 07:53:00,35.8,35.3,29.59,East,87,0.0,0.0,98,0.00,,---,0.00,VWS V13.00,2013-01-11 16:53:00,
2013-01-11 07:57:00,35.8,35.3,29.59,WSW,239,0.0,6.3,98,0.00,,---,0.00,VWS V13.00,2013-01-11 16:57:00,
2013-01-11 08:02:00,35.8,35.3,29.59,North,353,0.0,0.0,98,0.00,,---,0.00,VWS V13.00,2013-01-11 17:02:00,
2013-01-11 08:07:00,36.0,35.2,29.59,WSW,254,0.0,0.0,97,0.00,,---,0.00,VWS V13.00,2013-01-11 17:07:00,
2013-01-11 08:12:00,36.0,35.2,29.59,NW,315,10.5,11.0,97,0.00,,---,0.00,VWS V13.00,2013-01-11 17:12:00,
2013-01-11 08:17:00,35.8,33.4,29.59,NNW,343,14.5,14.5,91,0.00,,---,0.00,VWS V13.00,2013-01-11 17:17:00,
2013-01-11 08:22:00,35.8,33.4,29.62,NW,310,13.2,13.2,91,0.00,,---,0.00,VWS V13.00,2013-01-11 17:22:00,
2013-01-11 08:27:00,35.8,33.4,29.62,NW,307,2.2,13.2,91,0.00,,---,0.00,VWS V13.00,2013-01-11 17:27:00,
2013-01-11 08:32:00,36.0,32.5,29.62,NNE,14,8.1,13.2,87,0.00,,---,0.00,VWS V13.00,2013-01-11 17:32:00,
2013-01-11 08:37:00,36.0,32.5,29.62,North,353,12.8,13.2,87,0.00,,---,0.00,VWS V13.00,2013-01-11 17:37:00,
2013-01-11 08:42:00,36.1,31.8,29.62,NW,321,0.0,12.8,84,0.00,,---,0.00,VWS V13.00,2013-01-11 17:42:00,
2013-01-11 08:47:00,36.1,31.8,29.62,NNE,24,4.9,12.8,84,0.00,,---,0.00,VWS V13.00,2013-01-11 17:47:00,
2013-01-11 08:52:00,36.1,31.8,29.65,North,353,7.6,12.8,84,0.00,,---,0.00,VWS V13.00,2013-01-11 17:52:00,
2013-01-11 08:57:00,36.3,31.4,29.65,WNW,297,5.8,12.8,82,0.00,,---,0.00,VWS V13.00,2013-01-11 17:57:00,
2013-01-11 09:02:00,36.3,31.4,29.65,WNW,297,7.2,7.2,82,0.00,,---,0.00,VWS V13.00,2013-01-11 18:02:00,
2013-01-11 09:07:00,36.3,30.8,29.65,NW,307,0.0,7.2,80,0.00,,---,0.00,VWS V13.00,2013-01-11 18:07:00,
2013-01-11 09:12:00,36.3,30.8,29.65,WNW,303,8.1,8.1,80,0.00,,---,0.00,VWS V13.00,2013-01-11 18:12:00,
2013-01-11 09:17:00,36.3,30.8,29.65,NW,326,5.4,8.1,80,0.00,,---,0.00,VWS V13.00,2013-01-11 18:17:00,
2013-01-11 09:22:00,36.3,30.8,29.68,NE,56,0.0,13.2,80,0.00,,---,0.00,VWS V13.00,2013-01-11 18:22:00,
2013-01-11 09:27:00,36.5,30.6,29.68,NW,305,15.0,15.0,79,0.00,,---,0.00,VWS V13.00,2013-01-11 18:27:00,
2013-01-11 09:32:00,36.5,29.7,29.68,SW,220,0.0,15.0,76,0.00,,---,0.00,VWS V13.00,2013-01-11 18:32:00,
2013-01-11 09:37:00,36.5,29.7,29.68,North,2,0.0,15.0,76,0.00,,---,0.00,VWS V13.00,2013-01-11 18:37:00,
2013-01-11 09:42:00,36.5,29.7,29.68,NNE,15,0.0,0.0,76,0.00,,---,0.00,VWS V13.00,2013-01-11 18:42:00,
2013-01-11 09:47:00,36.5,29.7,29.68,NW,319,5.4,13.2,76,0.00,,---,0.00,VWS V13.00,2013-01-11 18:47:00,
2013-01-11 09:52:00,36.3,29.8,29.68,NW,313,10.5,13.2,77,0.00,,---,0.00,VWS V13.00,2013-01-11 18:52:00,
2013-01-11 09:57:00,36.3,29.8,29.68,North,353,11.0,13.2,77,0.00,,---,0.00,VWS V13.00,2013-01-11 18:57:00,
2013-01-11 10:02:00,36.7,29.8,29.68,North,353,5.4,11.0,76,0.00,,---,0.00,VWS V13.00,2013-01-11 19:02:00,
2013-01-11 10:07:00,36.3,29.5,29.68,East,85,0.0,11.0,76,0.00,,---,0.00,VWS V13.00,2013-01-11 19:07:00,
2013-01-11 10:12:00,36.3,29.5,29.71,NE,47,0.0,11.0,76,0.00,,---,0.00,VWS V13.00,2013-01-11 19:12:00,
2013-01-11 10:17:00,36.1,29.0,29.71,ENE,57,6.3,11.0,75,0.00,,---,0.00,VWS V13.00,2013-01-11 19:17:00,
2013-01-11 10:22:00,36.1,29.0,29.71,SE,129,0.0,5.8,75,0.00,,---,0.00,VWS V13.00,2013-01-11 19:22:00,
2013-01-11 10:27:00,36.3,28.8,29.71,North,11,0.0,5.8,74,0.00,,---,0.00,VWS V13.00,2013-01-11 19:27:00,
2013-01-11 10:32:00,36.3,28.8,29.71,ENE,68,0.0,5.8,74,0.00,,---,0.00,VWS V13.00,2013-01-11 19:32:00,
2013-01-11 10:37:00,36.7,29.5,29.74,ENE,74,0.0,5.8,75,0.00,,---,0.00,VWS V13.00,2013-01-11 19:37:00,
2013-01-11 10:42:00,36.7,29.5,29.74,ENE,73,0.0,0.0,75,0.00,,---,0.00,VWS V13.00,2013-01-11 19:42:00,
2013-01-11 10:47:00,36.7,29.5,29.74,NNE,17,0.0,0.0,75,0.00,,---,0.00,VWS V13.00,2013-01-11 19:47:00,
2013-01-11 10:52:00,36.5,30.0,29.74,NNE,32,0.0,0.0,77,0.00,,---,0.00,VWS V13.00,2013-01-11 19:52:00,
2013-01-11 10:57:00,36.5,30.0,29.74,ENE,71,0.0,4.9,77,0.00,,---,0.00,VWS V13.00,2013-01-11 19:57:00,
2013-01-11 11:02:00,36.3,30.4,29.74,NNE,27,0.0,0.0,79,0.00,,---,0.00,VWS V13.00,2013-01-11 20:02:00,
2013-01-11 11:07:00,36.3,30.4,29.74,North,0,0.0,0.0,79,0.00,,---,0.00,VWS V13.00,2013-01-11 20:07:00,
2013-01-11 11:12:00,36.3,30.4,29.74,NNE,19,5.8,12.8,79,0.00,,---,0.00,VWS V13.00,2013-01-11 20:12:00,
2013-01-11 11:17:00,36.3,29.2,29.74,NNE,27,10.5,12.8,75,0.00,,---,0.00,VWS V13.00,2013-01-11 20:17:00,
2013-01-11 11:22:00,36.3,29.2,29.74,WNW,301,0.0,10.5,75,0.00,,---,0.00,VWS V13.00,2013-01-11 20:22:00,
2013-01-11 11:27:00,36.9,28.0,29.74,NNE,14,8.1,10.5,70,0.00,,---,0.00,VWS V13.00,2013-01-11 20:27:00,
2013-01-11 11:32:00,36.9,28.0,29.74,NW,314,10.5,10.5,70,0.00,,---,0.00,VWS V13.00,2013-01-11 20:32:00,
2013-01-11 11:37:00,36.9,28.0,29.74,North,353,10.5,10.5,70,0.00,,---,0.00,VWS V13.00,2013-01-11 20:37:00,
2013-01-11 11:42:00,36.9,28.0,29.74,North,357,11.0,11.0,70,0.00,,---,0.00,VWS V13.00,2013-01-11 20:42:00,
2013-01-11 11:47:00,36.9,28.0,29.74,ENE,69,0.0,11.0,70,0.00,,---,0.00,VWS V13.00,2013-01-11 20:47:00,
2013-01-11 11:52:00,37.0,27.8,29.74,NNW,330,8.7,11.0,69,0.00,,---,0.00,VWS V13.00,2013-01-11 20:52:00,
2013-01-11 11:57:00,37.0,27.8,29.74,ENE,57,6.3,12.8,69,0.00,,---,0.00,VWS V13.00,2013-01-11 20:57:00,
2013-01-11 12:02:00,37.0,27.8,29.74,NNE,32,7.6,10.1,69,0.00,,---,0.00,VWS V13.00,2013-01-11 21:02:00,
2013-01-11 12:07:00,37.0,27.8,29.74,SE,141,0.0,12.8,69,0.00,,---,0.00,VWS V13.00,2013-01-11 21:07:00,
2013-01-11 12:12:00,37.0,27.5,29.74,NNW,341,0.0,12.8,68,0.00,,---,0.00,VWS V13.00,2013-01-11 21:12:00,
2013-01-11 12:17:00,36.9,27.3,29.74,SSW,199,0.0,12.8,68,0.00,,---,0.00,VWS V13.00,2013-01-11 21:17:00,
2013-01-11 12:22:00,36.9,27.3,29.74,ENE,76,2.2,2.2,68,0.00,,---,0.00,VWS V13.00,2013-01-11 21:22:00,
2013-01-11 12:27:00,37.0,27.5,29.74,ENE,64,0.0,4.0,68,0.00,,---,0.00,VWS V13.00,2013-01-11 21:27:00,
2013-01-11 12:32:00,37.0,27.5,29.74,NNW,330,8.7,8.7,68,0.00,,---,0.00,VWS V13.00,2013-01-11 21:32:00,
2013-01-11 12:37:00,37.0,28.2,29.74,WNW,300,10.1,10.1,70,0.00,,---,0.00,VWS V13.00,2013-01-11 21:37:00,
2013-01-11 12:42:00,37.0,28.2,29.74,WNW,290,0.0,10.1,70,0.00,,---,0.00,VWS V13.00,2013-01-11 21:42:00,
2013-01-11 12:47:00,37.0,27.8,29.74,North,0,6.3,10.1,69,0.00,,---,0.00,VWS V13.00,2013-01-11 21:47:00,
2013-01-11 12:52:00,37.0,27.8,29.74,NE,49,3.6,10.1,69,0.00,,---,0.00,VWS V13.00,2013-01-11 21:52:00,
2013-01-11 12:57:00,37.0,27.8,29.74,East,88,0.0,12.8,69,0.00,,---,0.00,VWS V13.00,2013-01-11 21:57:00,
2013-01-11 13:02:00,37.2,28.4,29.77,NW,326,8.7,8.7,70,0.00,,---,0.00,VWS V13.00,2013-01-11 22:02:00,
2013-01-11 13:07:00,37.2,28.4,29.77,NE,53,0.0,12.3,70,0.00,,---,0.00,VWS V13.00,2013-01-11 22:07:00,
2013-01-11 13:12:00,37.4,28.5,29.77,North,7,5.4,12.3,70,0.00,,---,0.00,VWS V13.00,2013-01-11 22:12:00,
2013-01-11 13:17:00,37.4,28.5,29.77,NW,320,5.4,12.3,70,0.00,,---,0.00,VWS V13.00,2013-01-11 22:17:00,
2013-01-11 13:22:00,37.4,28.2,29.77,ENE,67,0.0,5.4,69,0.00,,---,0.00,VWS V13.00,2013-01-11 22:22:00,
2013-01-11 13:27:00,37.6,28.4,29.77,NW,309,0.0,6.3,69,0.00,,---,0.00,VWS V13.00,2013-01-11 22:27:00,
2013-01-11 13:32:00,37.6,28.4,29.77,WNW,299,0.0,6.3,69,0.00,,---,0.00,VWS V13.00,2013-01-11 22:32:00,
2013-01-11 13:37:00,37.9,28.7,29.77,NNW,332,10.1,10.5,69,0.00,,---,0.00,VWS V13.00,2013-01-11 22:37:00,
2013-01-11 13:42:00,37.9,28.7,29.80,NNE,17,0.0,0.0,69,0.00,,---,0.00,VWS V13.00,2013-01-11 22:42:00,
2013-01-11 13:47:00,37.9,28.7,29.80,NNE,14,0.0,2.7,69,0.00,,---,0.00,VWS V13.00,2013-01-11 22:47:00,
2013-01-11 13:52:00,37.9,28.7,29.80,North,6,0.0,8.3,69,0.00,,---,0.00,VWS V13.00,2013-01-11 22:52:00,
2013-01-11 13:57:00,37.9,28.7,29.80,North,357,0.0,8.3,69,0.00,,---,0.00,VWS V13.00,2013-01-11 22:57:00,
2013-01-11 14:02:00,37.9,28.7,29.80,NE,48,8.3,8.3,69,0.00,,---,0.00,VWS V13.00,2013-01-11 23:02:00,
2013-01-11 14:07:00,37.9,28.7,29.80,North,353,0.0,8.3,69,0.00,,---,0.00,VWS V13.00,2013-01-11 23:07:00,
2013-01-11 14:12:00,37.9,29.0,29.80,NNW,335,0.0,8.3,70,0.00,,---,0.00,VWS V13.00,2013-01-11 23:12:00,
2013-01-11 14:17:00,37.9,29.0,29.80,North,0,8.1,8.3,70,0.00,,---,0.00,VWS V13.00,2013-01-11 23:17:00,
2013-01-11 14:22:00,37.9,29.0,29.80,North,8,10.5,10.5,70,0.00,,---,0.00,VWS V13.00,2013-01-11 23:22:00,
2013-01-11 14:27:00,37.9,29.0,29.80,North,349,0.0,10.5,70,0.00,,---,0.00,VWS V13.00,2013-01-11 23:27:00,
2013-01-11 14:32:00,37.9,29.0,29.80,NNE,24,7.6,10.5,70,0.00,,---,0.00,VWS V13.00,2013-01-11 23:32:00,
2013-01-11 14:37:00,38.1,29.6,29.80,West,271,0.0,10.5,71,0.00,,---,0.00,VWS V13.00,2013-01-11 23:37:00,
2013-01-11 14:42:00,38.1,29.6,29.80,NNE,13,0.0,11.0,71,0.00,,---,0.00,VWS V13.00,2013-01-11 23:42:00,
2013-01-11 14:47:00,38.1,29.6,29.80,NE,53,0.0,11.0,71,0.00,,---,0.00,VWS V13.00,2013-01-11 23:47:00,
2013-01-11 14:52:00,38.1,29.6,29.80,ESE,119,0.0,11.0,71,0.00,,---,0.00,VWS V13.00,2013-01-11 23:52:00,
2013-01-11 14:57:00,37.8,29.6,29.83,WNW,297,0.0,11.0,72,0.00,,---,0.00,VWS V13.00,2013-01-11 23:57:00,
2013-01-11 15:02:00,37.8,29.6,29.83,NNW,342,7.6,7.6,72,0.00,,---,0.00,VWS V13.00,2013-01-12 00:02:00,
2013-01-11 15:07:00,37.6,29.4,29.83,NE,36,0.0,7.6,72,0.00,,---,0.00,VWS V13.00,2013-01-12 00:07:00,
2013-01-11 15:12:00,37.6,29.4,29.83,North,353,0.0,7.6,72,0.00,,---,0.00,VWS V13.00,2013-01-12 00:12:00,
2013-01-11 15:17:00,37.6,29.4,29.83,ENE,63,0.0,7.6,72,0.00,,---,0.00,VWS V13.00,2013-01-12 00:17:00,
2013-01-11 15:22:00,37.6,29.4,29.85,ENE,69,0.0,0.0,72,0.00,,---,0.00,VWS V13.00,2013-01-12 00:22:00,
2013-01-11 15:27:00,37.6,29.4,29.85,NE,54,0.0,0.0,72,0.00,,---,0.00,VWS V13.00,2013-01-12 00:27:00,
2013-01-11 15:32:00,37.6,29.4,29.85,NE,54,0.0,0.0,72,0.00,,---,0.00,VWS V13.00,2013-01-12 00:32:00,
2013-01-11 15:37:00,37.6,29.4,29.85,ENE,62,0.0,0.0,72,0.00,,---,0.00,VWS V13.00,2013-01-12 00:37:00,
2013-01-11 15:42:00,37.4,29.2,29.85,ENE,62,0.0,0.0,72,0.00,,---,0.00,VWS V13.00,2013-01-12 00:42:00,
2013-01-11 15:47:00,37.4,29.5,29.85,ENE,60,0.0,0.0,73,0.00,,---,0.00,VWS V13.00,2013-01-12 00:47:00,
2013-01-11 15:52:00,37.4,29.5,29.85,East,84,0.0,0.0,73,0.00,,---,0.00,VWS V13.00,2013-01-12 00:52:00,
2013-01-11 15:57:00,37.2,30.4,29.83,ENE,70,0.0,0.0,76,0.00,,---,0.00,VWS V13.00,2013-01-12 00:57:00,
2013-01-11 16:02:00,37.2,30.4,29.83,ENE,77,0.0,0.0,76,0.00,,---,0.00,VWS V13.00,2013-01-12 01:02:00,
2013-01-11 16:07:00,37.0,30.5,29.83,ENE,77,0.0,0.0,77,0.00,,---,0.00,VWS V13.00,2013-01-12 01:07:00,
2013-01-11 16:12:00,37.0,30.5,29.83,East,82,0.0,0.0,77,0.00,,---,0.00,VWS V13.00,2013-01-12 01:12:00,
2013-01-11 16:17:00,37.0,30.5,29.83,NNE,24,0.0,0.0,77,0.00,,---,0.00,VWS V13.00,2013-01-12 01:17:00,
2013-01-11 16:22:00,37.0,30.5,29.83,ENE,57,0.0,0.0,77,0.00,,---,0.00,VWS V13.00,2013-01-12 01:22:00,
2013-01-11 16:27:00,36.9,31.0,29.83,ENE,57,0.0,0.0,79,0.00,,---,0.00,VWS V13.00,2013-01-12 01:27:00,
2013-01-11 16:32:00,36.7,30.8,29.83,ENE,76,0.0,0.0,79,0.00,,---,0.00,VWS V13.00,2013-01-12 01:32:00,
2013-01-11 16:37:00,36.7,30.8,29.83,NE,49,0.0,0.0,79,0.00,,---,0.00,VWS V13.00,2013-01-12 01:37:00,
2013-01-11 16:42:00,36.7,30.8,29.83,ENE,58,0.0,0.0,79,0.00,,---,0.00,VWS V13.00,2013-01-12 01:42:00,
2013-01-11 16:47:00,36.7,30.8,29.83,North,0,0.0,0.0,79,0.00,,---,0.00,VWS V13.00,2013-01-12 01:47:00,
2013-01-11 16:52:00,36.5,30.9,29.83,North,0,0.0,0.0,80,0.00,,---,0.00,VWS V13.00,2013-01-12 01:52:00,
2013-01-11 16:57:00,36.5,30.9,29.83,North,3,0.0,0.0,80,0.00,,---,0.00,VWS V13.00,2013-01-12 01:57:00,
2013-01-11 17:02:00,36.5,30.9,29.83,NW,318,0.0,0.0,80,0.00,,---,0.00,VWS V13.00,2013-01-12 02:02:00,
2013-01-11 17:07:00,36.5,30.9,29.83,NW,314,0.0,0.0,80,0.00,,---,0.00,VWS V13.00,2013-01-12 02:07:00,
2013-01-11 17:12:00,36.5,30.9,29.83,NW,305,0.0,0.0,80,0.00,,---,0.00,VWS V13.00,2013-01-12 02:12:00,
2013-01-11 17:17:00,36.3,30.8,29.85,North,6,0.0,0.0,80,0.00,,---,0.00,VWS V13.00,2013-01-12 02:17:00,
2013-01-11 17:22:00,36.1,30.6,29.85,NW,317,0.0,0.0,80,0.00,,---,0.00,VWS V13.00,2013-01-12 02:22:00,
2013-01-11 17:27:00,36.1,30.6,29.85,North,0,0.0,0.0,80,0.00,,---,0.00,VWS V13.00,2013-01-12 02:27:00,
2013-01-11 17:32:00,36.1,30.6,29.85,North,7,0.0,0.0,80,0.00,,---,0.00,VWS V13.00,2013-01-12 02:32:00,
2013-01-11 17:37:00,36.1,30.6,29.85,North,357,0.0,0.0,80,0.00,,---,0.00,VWS V13.00,2013-01-12 02:37:00,
2013-01-11 17:42:00,36.1,30.9,29.85,North,6,0.0,0.0,81,0.00,,---,0.00,VWS V13.00,2013-01-12 02:42:00,
2013-01-11 17:47:00,36.1,30.9,29.85,North,8,0.0,0.0,81,0.00,,---,0.00,VWS V13.00,2013-01-12 02:47:00,
2013-01-11 17:52:00,36.1,31.2,29.85,NNW,348,0.0,0.0,82,0.00,,---,0.00,VWS V13.00,2013-01-12 02:52:00,
2013-01-11 17:57:00,36.1,31.2,29.85,NNW,344,0.0,0.0,82,0.00,,---,0.00,VWS V13.00,2013-01-12 02:57:00,
2013-01-11 18:02:00,36.1,31.2,29.85,North,353,0.0,0.0,82,0.00,,---,0.00,VWS V13.00,2013-01-12 03:02:00,
2013-01-11 18:07:00,35.8,30.5,29.85,North,353,0.0,0.0,81,0.00,,---,0.00,VWS V13.00,2013-01-12 03:07:00,
2013-01-11 18:12:00,35.8,30.5,29.85,North,353,0.0,0.0,81,0.00,,---,0.00,VWS V13.00,2013-01-12 03:12:00,
2013-01-11 18:17:00,35.6,30.4,29.85,North,4,0.0,0.0,81,0.00,,---,0.00,VWS V13.00,2013-01-12 03:17:00,
2013-01-11 18:22:00,35.6,30.4,29.85,North,1,0.0,0.0,81,0.00,,---,0.00,VWS V13.00,2013-01-12 03:22:00,
2013-01-11 18:27:00,35.6,30.4,29.85,North,1,0.0,0.0,81,0.00,,---,0.00,VWS V13.00,2013-01-12 03:27:00,
2013-01-11 18:32:00,35.4,30.5,29.85,South,172,0.0,0.0,82,0.00,,---,0.00,VWS V13.00,2013-01-12 03:32:00,
2013-01-11 18:37:00,35.4,30.5,29.85,North,357,0.0,0.0,82,0.00,,---,0.00,VWS V13.00,2013-01-12 03:37:00,
2013-01-11 18:42:00,35.4,30.5,29.85,North,353,0.0,0.0,82,0.00,,---,0.00,VWS V13.00,2013-01-12 03:42:00,
2013-01-11 18:47:00,35.8,31.1,29.85,North,353,0.0,0.0,83,0.00,,---,0.00,VWS V13.00,2013-01-12 03:47:00,
2013-01-11 18:52:00,35.8,31.4,29.85,North,0,0.0,0.0,84,0.00,,---,0.00,VWS V13.00,2013-01-12 03:52:00,
2013-01-11 18:57:00,35.8,31.4,29.85,North,6,0.0,0.0,84,0.00,,---,0.00,VWS V13.00,2013-01-12 03:57:00,
2013-01-11 19:02:00,35.8,31.4,29.85,NNW,341,0.0,0.0,84,0.00,,---,0.00,VWS V13.00,2013-01-12 04:02:00,
2013-01-11 19:07:00,35.8,31.4,29.85,North,353,0.0,0.0,84,0.00,,---,0.00,VWS V13.00,2013-01-12 04:07:00,
2013-01-11 19:12:00,35.8,31.7,29.85,North,0,0.0,0.0,85,0.00,,---,0.00,VWS V13.00,2013-01-12 04:12:00,
2013-01-11 19:17:00,35.8,31.7,29.85,North,3,0.0,0.0,85,0.00,,---,0.00,VWS V13.00,2013-01-12 04:17:00,
2013-01-11 19:22:00,35.8,31.7,29.83,NNW,345,0.0,0.0,85,0.00,,---,0.00,VWS V13.00,2013-01-12 04:22:00,
2013-01-11 19:27:00,35.8,31.7,29.83,North,357,0.0,0.0,85,0.00,,---,0.00,VWS V13.00,2013-01-12 04:27:00,
2013-01-11 19:32:00,35.8,31.7,29.83,NNW,335,0.0,0.0,85,0.00,,---,0.00,VWS V13.00,2013-01-12 04:32:00,
2013-01-11 19:37:00,35.8,32.3,29.83,North,353,0.0,0.0,87,0.00,,---,0.00,VWS V13.00,2013-01-12 04:37:00,
2013-01-11 19:42:00,35.8,32.0,29.83,NNE,18,0.0,0.0,86,0.00,,---,0.00,VWS V13.00,2013-01-12 04:42:00,
2013-01-11 19:47:00,35.8,32.3,29.83,NNW,341,0.0,0.0,87,0.00,,---,0.00,VWS V13.00,2013-01-12 04:47:00,
2013-01-11 19:52:00,35.8,32.3,29.83,NNW,333,0.0,0.0,87,0.00,,---,0.00,VWS V13.00,2013-01-12 04:52:00,
2013-01-11 19:57:00,35.8,32.3,29.83,NNW,340,0.0,0.0,87,0.00,,---,0.00,VWS V13.00,2013-01-12 04:57:00,
2013-01-11 20:00:00,35.8,32.3,29.83,NNW,335,0.0,0.0,87,0.00,,---,0.00,VWS V13.00,2013-01-12 05:00:00,
2013-01-11 20:01:00,35.6,32.1,29.83,NNW,345,0.0,0.0,87,0.00,,---,0.00,VWS V13.00,2013-01-12 05:01:00,
2013-01-11 20:02:00,35.6,32.1,29.83,NNW,345,0.0,0.0,87,0.00,,---,0.00,VWS V13.00,2013-01-12 05:02:00,
2013-01-11 20:07:00,35.6,32.1,29.83,NNW,345,0.0,0.0,87,0.00,,---,0.00,VWS V13.00,2013-01-12 05:07:00,
2013-01-11 20:12:00,35.4,31.9,29.83,NNW,337,0.0,0.0,87,0.00,,---,0.00,VWS V13.00,2013-01-12 05:12:00,
2013-01-11 20:17:00,35.4,31.9,29.83,North,0,0.0,0.0,87,0.00,,---,0.00,VWS V13.00,2013-01-12 05:17:00,
2013-01-11 20:22:00,35.4,31.9,29.83,NNW,328,0.0,0.0,87,0.00,,---,0.00,VWS V13.00,2013-01-12 05:22:00,
2013-01-11 20:27:00,35.6,32.4,29.83,North,353,0.0,0.0,88,0.00,,---,0.00,VWS V13.00,2013-01-12 05:27:00,
2013-01-11 20:32:00,35.6,32.4,29.83,North,353,0.0,0.0,88,0.00,,---,0.00,VWS V13.00,2013-01-12 05:32:00,
2013-01-11 20:37:00,35.6,32.4,29.83,North,353,0.0,0.0,88,0.00,,---,0.00,VWS V13.00,2013-01-12 05:37:00,
2013-01-11 20:42:00,35.6,32.4,29.83,North,353,0.0,0.0,88,0.00,,---,0.00,VWS V13.00,2013-01-12 05:42:00,
2013-01-11 20:47:00,35.6,32.4,29.83,North,353,0.0,0.0,88,0.00,,---,0.00,VWS V13.00,2013-01-12 05:47:00,
2013-01-11 20:52:00,35.6,32.4,29.83,NNW,331,0.0,0.0,88,0.00,,---,0.00,VWS V13.00,2013-01-12 05:52:00,
2013-01-11 20:57:00,35.6,32.4,29.83,NNW,331,0.0,0.0,88,0.00,,---,0.00,VWS V13.00,2013-01-12 05:57:00,
2013-01-11 21:02:00,35.8,32.9,29.83,North,4,0.0,0.0,89,0.00,,---,0.00,VWS V13.00,2013-01-12 06:02:00,
2013-01-11 21:07:00,35.8,32.9,29.83,North,4,0.0,0.0,89,0.00,,---,0.00,VWS V13.00,2013-01-12 06:07:00,
2013-01-11 21:12:00,35.8,32.9,29.83,North,4,0.0,0.0,89,0.00,,---,0.00,VWS V13.00,2013-01-12 06:12:00,
2013-01-11 21:17:00,35.8,32.6,29.83,North,4,0.0,0.0,88,0.00,,---,0.00,VWS V13.00,2013-01-12 06:17:00,
2013-01-11 21:22:00,35.8,32.6,29.83,North,4,0.0,0.0,88,0.00,,---,0.00,VWS V13.00,2013-01-12 06:22:00,
2013-01-11 21:27:00,35.8,32.6,29.83,North,4,0.0,0.0,88,0.00,,---,0.00,VWS V13.00,2013-01-12 06:27:00,
2013-01-11 21:32:00,35.6,32.4,29.83,North,4,0.0,0.0,88,0.00,,---,0.00,VWS V13.00,2013-01-12 06:32:00,
2013-01-11 21:37:00,35.6,32.4,29.83,North,4,0.0,0.0,88,0.00,,---,0.00,VWS V13.00,2013-01-12 06:37:00,
2013-01-11 21:42:00,35.6,32.4,29.83,North,4,0.0,0.0,88,0.00,,---,0.00,VWS V13.00,2013-01-12 06:42:00,
2013-01-11 21:47:00,35.6,32.4,29.83,North,4,0.0,0.0,88,0.00,,---,0.00,VWS V13.00,2013-01-12 06:47:00,
2013-01-11 21:52:00,35.6,32.4,29.83,North,4,0.0,0.0,88,0.00,,---,0.00,VWS V13.00,2013-01-12 06:52:00,
2013-01-11 21:57:00,35.6,32.7,29.83,North,4,0.0,0.0,89,0.00,,---,0.00,VWS V13.00,2013-01-12 06:57:00,
2013-01-11 22:02:00,35.6,32.7,29.83,North,4,0.0,0.0,89,0.00,,---,0.00,VWS V13.00,2013-01-12 07:02:00,
2013-01-11 22:07:00,35.4,32.5,29.83,North,4,0.0,0.0,89,0.00,,---,0.00,VWS V13.00,2013-01-12 07:07:00,
2013-01-11 22:12:00,35.4,32.5,29.83,North,4,0.0,0.0,89,0.00,,---,0.00,VWS V13.00,2013-01-12 07:12:00,
2013-01-11 22:17:00,35.4,32.5,29.83,North,4,0.0,0.0,89,0.00,,---,0.00,VWS V13.00,2013-01-12 07:17:00,
2013-01-11 22:22:00,35.6,32.7,29.83,North,4,0.0,0.0,89,0.00,,---,0.00,VWS V13.00,2013-01-12 07:22:00,
2013-01-11 22:27:00,35.6,32.7,29.83,North,4,0.0,0.0,89,0.00,,---,0.00,VWS V13.00,2013-01-12 07:27:00,
2013-01-11 22:32:00,35.6,32.7,29.83,North,4,0.0,0.0,89,0.00,,---,0.00,VWS V13.00,2013-01-12 07:32:00,
2013-01-11 22:37:00,35.6,32.7,29.83,North,4,0.0,0.0,89,0.00,,---,0.00,VWS V13.00,2013-01-12 07:37:00,
2013-01-11 22:42:00,35.6,32.7,29.83,North,4,0.0,0.0,89,0.00,,---,0.00,VWS V13.00,2013-01-12 07:42:00,
2013-01-11 22:47:00,35.6,32.7,29.83,North,4,0.0,0.0,89,0.00,,---,0.00,VWS V13.00,2013-01-12 07:47:00,
2013-01-11 22:52:00,35.6,32.7,29.80,North,4,0.0,0.0,89,0.00,,---,0.00,VWS V13.00,2013-01-12 07:52:00,
2013-01-11 22:57:00,35.6,32.7,29.80,North,4,0.0,0.0,89,0.00,,---,0.00,VWS V13.00,2013-01-12 07:57:00,
2013-01-11 23:02:00,35.6,32.7,29.80,North,4,0.0,0.0,89,0.00,,---,0.00,VWS V13.00,2013-01-12 08:02:00,
2013-01-11 23:07:00,35.6,32.7,29.80,North,4,0.0,0.0,89,0.00,,---,0.00,VWS V13.00,2013-01-12 08:07:00,
2013-01-11 23:12:00,35.4,32.5,29.80,North,4,0.0,0.0,89,0.00,,---,0.00,VWS V13.00,2013-01-12 08:12:00,
2013-01-11 23:17:00,35.4,32.5,29.80,WNW,302,0.0,0.0,89,0.00,,---,0.00,VWS V13.00,2013-01-12 08:17:00,
2013-01-11 23:22:00,35.4,32.8,29.80,WNW,302,0.0,0.0,90,0.00,,---,0.00,VWS V13.00,2013-01-12 08:22:00,
2013-01-11 23:27:00,35.4,32.8,29.80,SW,231,0.0,0.0,90,0.00,,---,0.00,VWS V13.00,2013-01-12 08:27:00,
2013-01-11 23:32:00,35.4,32.8,29.80,South,186,0.0,0.0,90,0.00,,---,0.00,VWS V13.00,2013-01-12 08:32:00,
2013-01-11 23:37:00,35.6,33.0,29.80,SW,235,0.0,0.0,90,0.00,,---,0.00,VWS V13.00,2013-01-12 08:37:00,
2013-01-11 23:42:00,35.6,33.0,29.80,SW,235,0.0,0.0,90,0.00,,---,0.00,VWS V13.00,2013-01-12 08:42:00,
2013-01-11 23:47:00,35.6,33.0,29.80,SW,219,0.0,0.0,90,0.00,,---,0.00,VWS V13.00,2013-01-12 08:47:00,
2013-01-11 23:52:00,35.6,33.0,29.80,SW,227,0.0,0.0,90,0.00,,---,0.00,VWS V13.00,2013-01-12 08:52:00,
2013-01-11 23:57:00,35.6,33.0,29.80,WSW,254,0.0,0.0,90,0.00,,---,0.00,VWS V13.00,2013-01-12 08:57:00,